Location: Stara Lesna
(49.1528°N, 20.2911°E)
Time: 09:35:09
(UTC+02:00)

Sich 1 - Pass Details

Date: 13 July 2020
Orbit: 595 x 624 km, 82.5° (Epoch: 05 August)

Event Time Altitude Azimuth Distance (km) Brightness Sun altitude
Exits shadow 01:19:12 34° 229° (SW) 1,016 3.7 -18.6°
Maximum altitude 01:20:43 50° 284° (WNW) 779 3.5 -18.6°
Drops below altitude 10° 01:25:00 10° 1° (N) 1,983 6.9 -18.5°
Sets 01:27:18 0° 6° (N) 2,898 8.2 -18.4°
